Weather in Schaffhausen

Switzerland     47°42′10″N   8°38′16″E
temp.,
°C
wind,
m/s
gust,
m/s
humid.,
%
clouds,
%
prec.,
mm/h
press.,
hPa
HPBL,
m
15 may, sat
sat1523:00+6wsw2296100 0.1 101329
02:00+5ssw11976 0.1 101418
05:00+3wsw119818 0.0 101310
08:00+6ssw1295100 0.0 1013179
11:00+12sw386299 0.0 10101190
14:00+15sw5943100 0.0 10072101
17:00+8wsw51195100 1.4 10101179
20:00+7sw4997100 5.9 10101044
16 may, sun
sun1623:00+7sw2998100 3.4 1010675
02:00+5ssw249882 3.6 1011101
05:00+7ssw289798 0.1 1010435
08:00+8s139293 0.2 1009263
11:00+11wsw3976100 0.1 10081145
14:00+10sw41195100 2.0 10071389
17:00+10sw499747 1.9 1007612
20:00+9sw41097100 9.5 1008576
17 may, mon
mon1723:00+8sw4129477 3.6 1009820
02:00+7wsw3119519 3.6 1009559
05:00+5sw279827 0.1 1010231
08:00+7sw4129121 0.1 10111077
11:00+11w7126676 0.1 10111642
14:00+10w6127515 0.8 10121360
17:00+12w7126881 0.4 10121349
20:00+9wsw5128332 0.7 10131105
18 may, tue
tue1823:00+8sw41189100 0.3 1014996
02:00+8sw61296100 2.9 10141258
05:00+7sw61396100 0.6 10161283
08:00+7wsw51294100 0.9 10181101
11:00+6sw51296100 2.1 10201257
14:00+6wsw51196100 2.7 10211009
17:00+7wsw41094100 0.1 1022907
20:00+7sw4889100 0.2 1022890
19 may, wed
wed1923:00+5wsw41294100 0.3 1023512
02:00+5sw2798100 1.3 1023285
05:00+5sw2598100 0.0 1022172
08:00+6sw41097100 2.5 10211165
11:00+8w61193100 1.3 10221106
14:00+8wsw5109245 4.2 1022988
17:00+11wsw577042 0.9 10221373
20:00+9wsw48824 1.4 1023407